• In Kazakhstan
  • List of Countries
  • For 7 days
  • Water Temperature
  • Weather Map
  • News
  • Weather Widgets
  • user-avatar
    Login

    Hourly Weather Rhodes

    Today, 23 September, Monday

    Time Temperature Precipitation Wind Pressure Humidity
    00:00 +17°C° 0 mm 5 mps 733 mmHg 63%
    01:00 +17°C° 0 mm 5 mps 733 mmHg 64%
    02:00 +17°C° 0 mm 5 mps 733 mmHg 69%
    03:00 +17°C° 0 mm 5 mps 733 mmHg 70%
    04:00 +16°C° 0 mm 5 mps 733 mmHg 70%
    05:00 +17°C° 0 mm 4 mps 733 mmHg 71%
    06:00 +19°C° 0 mm 5 mps 733 mmHg 64%
    07:00 +21°C° 0 mm 5 mps 733 mmHg 57%
    08:00 +23°C° 0 mm 4 mps 734 mmHg 51%
    09:00 +25°C° 0 mm 4 mps 734 mmHg 44%
    10:00 +27°C° 0 mm 4 mps 734 mmHg 37%
    11:00 +29°C° 0 mm 4 mps 734 mmHg 30%
    12:00 +28°C° 0 mm 5 mps 733 mmHg 32%
    13:00 +28°C° 0 mm 6 mps 733 mmHg 33%
    14:00 +28°C° 0 mm 6 mps 733 mmHg 35%
    15:00 +26°C° 0 mm 6 mps 733 mmHg 39%
    16:00 +24°C° 0 mm 7 mps 732 mmHg 43%
    17:00 +23°C° 0 mm 7 mps 732 mmHg 47%
    18:00 +21°C° 0 mm 7 mps 732 mmHg 55%
    19:00 +20°C° 0 mm 6 mps 732 mmHg 63%
    20:00 +17°C° 0 mm 6 mps 733 mmHg 72%
    21:00 +17°C° 0 mm 6 mps 733 mmHg 70%
    22:00 +17°C° 0 mm 6 mps 732 mmHg 69%
    23:00 +17°C° 0 mm 5 mps 732 mmHg 68%

    Tomorrow, 24 September, Tuesday

    Time Temperature Precipitation Wind Pressure Humidity
    00:00 +17°C° 0 mm 5 mps 732 mmHg 68%
    01:00 +17°C° 0 mm 5 mps 732 mmHg 69%
    02:00 +17°C° 0 mm 5 mps 732 mmHg 69%
    03:00 +17°C° 0 mm 5 mps 732 mmHg 71%
    04:00 +18°C° 0 mm 4 mps 732 mmHg 74%
    05:00 +18°C° 0 mm 4 mps 731 mmHg 76%
    06:00 +20°C° 0 mm 4 mps 731 mmHg 71%
    07:00 +21°C° 0 mm 4 mps 732 mmHg 67%
    08:00 +24°C° 0 mm 3 mps 732 mmHg 63%
    09:00 +26°C° 0 mm 3 mps 732 mmHg 54%
    10:00 +28°C° 0 mm 3 mps 732 mmHg 46%
    11:00 +31°C° 0 mm 3 mps 732 mmHg 37%
    12:00 +30°C° 0 mm 4 mps 731 mmHg 40%
    13:00 +30°C° 0 mm 4 mps 731 mmHg 42%
    14:00 +30°C° 0 mm 5 mps 731 mmHg 45%
    15:00 +29°C° 0 mm 4 mps 731 mmHg 50%
    16:00 +27°C° 0 mm 4 mps 730 mmHg 55%
    17:00 +26°C° 0 mm 4 mps 730 mmHg 60%
    18:00 +24°C° 0 mm 3 mps 730 mmHg 70%
    19:00 +21°C° 0 mm 3 mps 730 mmHg 79%
    20:00 +20°C° 0 mm 2 mps 730 mmHg 88%
    21:00 +20°C° 0.1 mm 2 mps 730 mmHg 86%
    22:00 +21°C° 0.1 mm 2 mps 729 mmHg 85%
    23:00 +21°C° 0.1 mm 3 mps 729 mmHg 83%

    Day after tomorrow, 25 September, Wednesday

    Time Temperature Precipitation Wind Pressure Humidity
    00:00 +21°C° 0 mm 3 mps 729 mmHg 86%
    01:00 +20°C° 0 mm 3 mps 729 mmHg 90%
    02:00 +20°C° 0 mm 4 mps 729 mmHg 93%
    03:00 +20°C° 0.3 mm 4 mps 728 mmHg 93%
    04:00 +21°C° 0.3 mm 4 mps 728 mmHg 93%
    05:00 +21°C° 0.3 mm 4 mps 728 mmHg 93%
    06:00 +22°C° 0.7 mm 4 mps 728 mmHg 89%
    07:00 +23°C° 0.7 mm 4 mps 728 mmHg 85%
    08:00 +23°C° 0.7 mm 4 mps 728 mmHg 81%
    09:00 +25°C° 0.3 mm 4 mps 729 mmHg 75%
    10:00 +26°C° 0.3 mm 4 mps 729 mmHg 69%
    11:00 +27°C° 0.3 mm 3 mps 729 mmHg 63%
    12:00 +28°C° 0.4 mm 4 mps 729 mmHg 57%
    13:00 +29°C° 0.4 mm 4 mps 729 mmHg 51%
    14:00 +30°C° 0.4 mm 5 mps 729 mmHg 46%
    15:00 +29°C° 0 mm 4 mps 729 mmHg 50%
    16:00 +27°C° 0 mm 4 mps 729 mmHg 54%
    17:00 +26°C° 0 mm 4 mps 729 mmHg 59%
    18:00 +25°C° 0 mm 4 mps 729 mmHg 71%
    19:00 +22°C° 0 mm 4 mps 730 mmHg 82%
    20:00 +20°C° 0 mm 3 mps 730 mmHg 94%
    21:00 +20°C° 0 mm 3 mps 730 mmHg 94%
    22:00 +20°C° 0 mm 3 mps 730 mmHg 94%
    23:00 +20°C° 0 mm 2 mps 730 mmHg 94%

    26 September, Thursday

    Time Temperature Precipitation Wind Pressure Humidity
    00:00 +20°C° 0 mm 2 mps 730 mmHg 94%
    01:00 +20°C° 0 mm 2 mps 730 mmHg 94%
    02:00 +20°C° 0 mm 2 mps 730 mmHg 94%
    03:00 +20°C° 0 mm 2 mps 731 mmHg 93%
    04:00 +20°C° 0 mm 2 mps 731 mmHg 92%
    05:00 +20°C° 0 mm 2 mps 731 mmHg 91%
    06:00 +21°C° 0 mm 2 mps 731 mmHg 86%
    07:00 +23°C° 0 mm 2 mps 731 mmHg 80%
    08:00 +24°C° 0 mm 2 mps 732 mmHg 75%
    09:00 +26°C° 0 mm 2 mps 732 mmHg 68%
    10:00 +27°C° 0 mm 2 mps 732 mmHg 61%
    11:00 +29°C° 0 mm 2 mps 732 mmHg 54%
    12:00 +28°C° 0 mm 2 mps 732 mmHg 56%
    13:00 +28°C° 0 mm 3 mps 732 mmHg 59%
    14:00 +27°C° 0 mm 3 mps 732 mmHg 62%
    15:00 +26°C° 0 mm 3 mps 731 mmHg 66%
    16:00 +25°C° 0 mm 3 mps 731 mmHg 69%
    17:00 +23°C° 0 mm 4 mps 731 mmHg 73%
    18:00 +22°C° 0 mm 4 mps 731 mmHg 78%
    19:00 +21°C° 0 mm 4 mps 732 mmHg 83%
    20:00 +19°C° 0 mm 4 mps 732 mmHg 88%
    21:00 +19°C° 0 mm 4 mps 732 mmHg 86%
    22:00 +19°C° 0 mm 4 mps 732 mmHg 85%
    23:00 +19°C° 0 mm 4 mps 732 mmHg 84%

    27 September, Friday

    Time Temperature Precipitation Wind Pressure Humidity
    00:00 +19°C° 0 mm 4 mps 732 mmHg 85%
    01:00 +19°C° 0 mm 4 mps 731 mmHg 86%
    02:00 +18°C° 0 mm 3 mps 731 mmHg 87%
    03:00 +18°C° 0 mm 3 mps 731 mmHg 87%
    04:00 +18°C° 0 mm 3 mps 731 mmHg 87%
    05:00 +18°C° 0 mm 3 mps 731 mmHg 87%
    06:00 +20°C° 0 mm 3 mps 731 mmHg 78%
    07:00 +21°C° 0 mm 3 mps 731 mmHg 70%
    08:00 +24°C° 0 mm 3 mps 731 mmHg 61%
    09:00 +25°C° 0 mm 3 mps 732 mmHg 54%
    10:00 +27°C° 0 mm 3 mps 732 mmHg 48%
    11:00 +29°C° 0 mm 3 mps 732 mmHg 41%
    12:00 +28°C° 0 mm 4 mps 732 mmHg 42%
    13:00 +28°C° 0 mm 4 mps 732 mmHg 44%
    14:00 +28°C° 0 mm 4 mps 731 mmHg 45%
    15:00 +27°C° 0 mm 5 mps 731 mmHg 49%
    16:00 +26°C° 0 mm 5 mps 731 mmHg 53%
    17:00 +25°C° 0 mm 5 mps 731 mmHg 57%
    18:00 +23°C° 0 mm 5 mps 731 mmHg 65%
    19:00 +21°C° 0 mm 5 mps 732 mmHg 73%
    20:00 +20°C° 0 mm 5 mps 732 mmHg 81%
    21:00 +20°C° 0 mm 5 mps 732 mmHg 82%
    22:00 +20°C° 0 mm 5 mps 732 mmHg 82%
    23:00 +20°C° 0 mm 5 mps 732 mmHg 82%

    28 September, Saturday

    Time Temperature Precipitation Wind Pressure Humidity
    00:00 +20°C° 0 mm 5 mps 732 mmHg 80%
    01:00 +20°C° 0 mm 4 mps 732 mmHg 79%
    02:00 +20°C° 0 mm 4 mps 732 mmHg 77%
    03:00 +20°C° 0 mm 4 mps 732 mmHg 77%
    04:00 +20°C° 0 mm 4 mps 732 mmHg 77%
    05:00 +20°C° 0 mm 4 mps 732 mmHg 77%
    06:00 +22°C° 0 mm 4 mps 732 mmHg 69%
    07:00 +23°C° 0 mm 4 mps 732 mmHg 61%
    08:00 +26°C° 0 mm 4 mps 732 mmHg 53%
    09:00 +28°C° 0 mm 4 mps 732 mmHg 46%
    10:00 +29°C° 0 mm 4 mps 732 mmHg 40%
    11:00 +32°C° 0 mm 4 mps 733 mmHg 33%
    12:00 +32°C° 0 mm 4 mps 732 mmHg 34%
    13:00 +30°C° 0 mm 5 mps 732 mmHg 35%
    14:00 +30°C° 0 mm 5 mps 732 mmHg 36%
    15:00 +29°C° 0 mm 6 mps 731 mmHg 40%
    16:00 +27°C° 0 mm 6 mps 731 mmHg 44%
    17:00 +26°C° 0 mm 6 mps 731 mmHg 48%
    18:00 +24°C° 0 mm 6 mps 731 mmHg 54%
    19:00 +22°C° 0 mm 6 mps 731 mmHg 59%
    20:00 +21°C° 0 mm 6 mps 731 mmHg 65%
    21:00 +21°C° 0 mm 5 mps 731 mmHg 67%
    22:00 +20°C° 0 mm 5 mps 731 mmHg 70%
    23:00 +20°C° 0 mm 5 mps 731 mmHg 72%
    Show more